Location: Ermatingen
(47.6706°N, 9.0857°E)
Time: 21:40:38
(UTC+00:00)

Cosmos 1428 Rocket - Visible Passes

Search period start: 28 November 2021 00:00
Search period end: 08 December 2021 00:00
Orbit: 947 x 989 km, 82.9° (Epoch: 27 November)

Date Brightness Start Highest point End Pass type
(mag) Time Alt. Az. Time Alt. Az. Time Alt. Az.
28 Nov 6.7 05:31:16 10° SE 05:36:14 26° E 05:41:11 10° NNE visible
28 Nov 5.3 16:21:25 10° NNE 16:26:27 26° ENE 16:31:29 10° ESE visible
28 Nov 5.0 18:06:07 10° NNW 18:12:07 58° W 18:18:05 10° S visible
29 Nov 5.8 05:53:20 10° SSE 05:59:05 43° E 06:04:50 10° NNE visible
29 Nov 4.8 16:44:08 10° N 16:49:55 42° ENE 16:55:41 10° SE visible
29 Nov 5.9 18:29:35 10° NNW 18:35:02 35° W 18:40:29 10° SSW visible
30 Nov 7.4 04:35:59 10° E 04:38:01 12° ENE 04:40:03 10° NE visible
30 Nov 4.4 17:07:06 10° N 17:13:13 68° E 17:19:20 10° SSE visible
30 Nov 6.7 18:53:25 10° NW 18:57:50 21° W 19:02:15 10° SW visible
01 Dec 7.0 04:56:19 10° SE 05:00:39 20° E 05:04:58 10° NE visible
01 Dec 4.6 17:30:15 10° NNW 17:36:22 75° W 17:42:29 10° S visible
01 Dec 7.3 19:18:10 10° NW 19:20:28 12° WNW 19:22:46 10° W visible
02 Dec 6.2 05:18:02 10° SSE 05:23:26 34° E 05:28:50 10° NNE visible
02 Dec 5.1 16:08:31 10° N 16:14:00 33° ENE 16:19:28 10° SE visible
02 Dec 5.5 17:53:36 10° NNW 17:59:23 45° W 18:05:10 10° SSW visible
03 Dec 5.3 05:40:24 10° SSE 05:46:21 56° E 05:52:19 10° NNE visible
03 Dec 4.6 16:31:23 10° N 16:37:22 53° ENE 16:43:22 10° SSE visible
03 Dec 6.4 18:17:13 10° NNW 18:22:14 27° W 18:27:17 10° SW visible
04 Dec 7.2 04:21:40 10° ESE 04:25:07 16° ENE 04:28:31 10° NE visible
04 Dec 4.5 06:03:16 10° S 06:09:25 89° W 06:15:35 10° N visible
04 Dec 4.4 16:54:26 10° N 17:00:36 86° E 17:06:46 10° S visible
04 Dec 7.1 18:41:22 10° NW 18:44:58 16° W 18:48:35 10° WSW visible
05 Dec 6.6 04:42:52 10° SE 04:47:49 26° E 04:52:44 10° NNE visible
05 Dec 5.1 17:17:40 10° NNW 17:23:41 58° W 17:29:41 10° S visible
06 Dec 5.7 05:04:56 10° SSE 05:10:40 43° E 05:16:23 10° NNE visible
06 Dec 6.1 17:41:09 10° NNW 17:46:37 35° W 17:52:06 10° SSW visible
07 Dec 7.4 03:47:39 10° E 03:49:36 12° ENE 03:51:33 10° ENE visible
07 Dec 4.8 05:27:34 10° S 05:33:40 72° E 05:39:45 10° NNE visible
07 Dec 4.4 16:18:40 10° N 16:24:47 68° ENE 16:30:56 10° SSE visible
07 Dec 6.9 18:04:58 10° NW 18:09:24 21° W 18:13:53 10° SW visible
